sat.trackr.live / text

‹ back to catalog

ANISCSAT-1

NORAD 66671 · 2025-276F

PAYLOAD ACTIVE UNKNOWN

§ Identity

Operator
Country
AZER
Launch date
2025-11-28
Launch site
AFWTR
Launch vehicle
Mass (kg)
RCS (m²)

External: N2YO · Heavens-Above · Gunter

§ Orbital elements

Epoch: 2026-09-20T22:42:55.739808Z

Period
94.53 min
Inclination
97.4129°
Eccentricity
0.0006040
Mean motion
15.23281211 rev/d
Perigee alt
491.8 km
Apogee alt
500.1 km
Semi-major
6,874.1 km
B*
3.0386e-4
RAAN
336.4651°
Arg perigee
37.4281°
Mean anomaly
322.7375°
Rev number
4,500

§ Raw data

ANISCSAT-11 66671U 25276F   26263.94647847  .00007139  00000+0  30386-3 0  99982 66671  97.4129 336.4651 0006040  37.4281 322.7375 15.23281211 45007

JSON: /api/v1/satellites/66671 · /tle

For live sub-satellite position, see the globe view (requires WebGL).

§ Visibility from observer

Set your observer location to see the next 7 days of passes ≥ 10°. The values pass through the URL so the page stays shareable.

No JS? Fill the form by hand. The geolocation button needs JavaScript.